RH
14 13 13 14 16 17 19 17 18 23 29 30 36 41 42 49 51 57 55 53 52 50 54 44 43 41 41 36 31 31 28 29 31 32 32 31 30 29 28 27 27 28 29 29 28 27 27 28 28
14 13 13 15 19 18 18 18 17 20 30 32 37 40 45 51 57 57 54 55 58 57 59 52 48 54 43 39 37 35 34 33 34 33 33 33 33 32 31 31 30 29 29 30 31 30 28 29 30
15 14 14 19 24 22 19 17 22 28 32 31 35 39 43 49 51 49 48 51 56 58 58 56 53 53 49 47 49 43 37 35 35 36 36 36 36 36 36 35 34 33 31 30 31 32 32 30 30
15 14 16 18 21 20 20 18 26 32 32 32 34 38 44 45 47 43 42 43 48 51 56 56 57 55 53 52 50 42 39 38 38 39 40 40 40 41 42 42 41 40 39 36 33 32 32 33 32
14 14 18 20 23 22 21 20 29 30 30 33 35 41 47 49 46 43 44 44 43 45 49 49 51 52 49 43 41 42 42 41 41 42 44 45 46 47 47 48 48 48 46 44 44 41 38 35 36
14 15 19 21 21 22 21 20 25 28 29 31 36 38 46 51 42 39 41 42 43 40 45 48 49 44 40 40 41 41 40 41 42 43 45 47 47 48 49 50 51 53 55 55 56 54 55 49 43
14 16 19 20 22 20 22 22 23 26 29 31 33 36 46 51 41 38 40 39 38 38 39 40 38 38 39 40 41 42 43 43 44 45 48 45 41 41 45 46 46 46 50 55 60 65 70 73 68
12 16 18 18 20 22 22 23 25 27 26 30 33 33 46 48 47 45 37 38 36 34 35 35 37 38 38 39 40 42 43 44 46 46 41 37 36 38 39 43 49 54 55 56 57 62 66 67 68
13 15 16 14 16 21 23 26 27 27 26 28 31 27 37 46 46 45 36 33 35 35 36 39 40 40 40 39 40 42 44 42 36 34 30 32 34 36 38 41 47 46 49 50 57 62 64 66 69
14 16 15 13 16 19 22 26 27 26 27 31 30 30 39 45 44 40 33 30 31 32 35 37 36 35 38 40 39 34 28 28 29 29 30 32 34 36 39 38 43 49 51 48 50 53 56 63 67
16 16 16 14 15 19 21 22 25 27 29 30 31 35 39 41 39 35 29 30 31 30 26 23 21 19 18 18 20 22 24 25 25 25 27 30 34 38 40 42 43 48 53 54 54 54 52 51 51
19 19 18 17 18 19 22 24 26 28 29 28 31 30 35 35 32 30 28 28 28 26 22 20 18 17 18 17 17 17 19 23 24 22 25 29 35 40 42 44 49 54 54 54 54 52 54 46 38
20 21 22 20 19 21 22 23 24 27 27 27 28 29 30 30 29 28 27 27 26 23 20 19 20 19 20 19 18 19 21 24 28 33 33 32 39 41 42 49 50 51 51 49 46 42 37 35 36
22 23 23 22 20 19 19 21 21 23 24 23 25 24 25 25 23 23 24 25 23 23 23 23 23 24 25 24 22 20 22 24 27 28 29 30 32 33 32 34 38 38 40 39 37 36 35 34 34
24 25 23 22 21 21 20 20 19 20 22 21 19 20 22 23 23 24 25 24 25 25 25 26 27 27 28 27 26 25 22 23 24 25 25 26 27 27 28 28 29 30 31 32 34 35 36 37 38
24 23 24 18 19 19 19 18 19 19 18 19 20 22 23 25 27 28 29 29 29 27 27 27 27 29 29 28 28 27 25 23 23 23 24 24 24 25 25 26 25 26 26 27 27 28 31 34 36
28 23 25 21 18 18 19 18 16 17 20 20 22 25 27 29 31 32 31 31 30 29 29 29 29 31 31 31 31 28 25 25 25 23 21 19 19 19 19 18 18 18 18 18 19 21 21 23 26
30 31 28 26 21 21 22 21 19 20 24 25 26 28 31 33 34 34 33 33 32 32 32 31 30 31 31 32 32 31 27 24 22 21 20 19 18 18 17 17 17 16 16 17 16 16 16 17 18
31 33 33 29 25 25 23 24 23 24 25 28 30 32 34 36 37 37 37 37 36 36 36 35 34 35 35 36 36 34 29 26 27 26 24 22 20 20 19 19 19 18 17 17 17 16 16 14 14
37 37 36 33 29 30 29 28 26 27 28 29 31 34 36 39 39 40 41 42 42 42 43 42 41 41 39 38 37 35 33 32 30 30 27 26 25 24 23 22 21 21 21 20 20 19 19 18 17
41 41 40 37 35 33 33 30 28 27 27 28 31 32 36 37 39 41 42 44 45 45 45 46 46 43 42 39 38 35 36 35 36 37 34 31 29 29 27 25 25 25 25 24 24 23 23 22 21
45 41 40 43 42 45 37 35 29 30 30 30 32 34 35 36 40 43 44 45 46 48 49 50 47 45 42 40 38 40 41 42 42 44 40 38 37 36 31 27 26 28 29 28 27 27 26 26 25
43 40 43 43 45 45 42 45 31 31 32 33 33 33 35 37 39 41 44 47 49 51 54 52 52 50 43 46 46 45 46 45 46 48 43 46 44 42 34 30 29 27 27 27 28 29 30 29 30
48 46 45 48 49 53 46 48 30 34 33 33 33 35 38 40 42 46 49 52 55 58 58 58 55 50 50 48 45 45 46 50 51 50 50 47 46 42 37 34 34 31 29 28 28 29 30 32 31
50 52 59 58 61 53 45 50 36 38 39 39 38 37 39 41 44 48 51 56 60 63 65 59 52 53 54 55 56 57 56 61 59 58 55 53 48 43 40 37 35 33 31 26 26 27 29 32 32
50 52 61 62 61 51 48 50 41 49 47 44 40 40 43 49 50 52 58 63 68 71 70 67 67 73 67 67 67 67 68 68 62 64 65 54 51 45 42 38 34 30 27 23 22 22 24 31 33
45 49 47 56 59 62 54 49 49 53 52 50 50 50 51 51 55 59 66 68 69 69 70 71 79 78 74 73 71 71 69 69 67 66 62 56 51 47 43 38 31 25 24 25 21 19 21 23 28
44 45 54 63 65 64 56 56 54 59 58 54 53 53 55 57 61 65 68 72 73 76 75 73 72 69 68 72 71 68 70 70 68 71 69 65 61 54 46 34 28 24 21 23 23 21 21 21 25
52 52 52 56 63 60 56 55 49 59 59 60 59 60 58 59 59 62 66 70 71 73 73 75 73 72 71 74 76 73 72 83 85 79 72 66 59 51 44 35 28 27 24 24 27 26 23 22 27
64 67 66 72 67 74 72 64 62 66 69 69 66 61 60 61 61 62 63 63 66 69 72 78 78 79 78 81 78 80 79 76 76 76 73 67 60 53 44 34 30 29 27 23 24 25 27 29 27